Location: Writing-on-Stone Provincial Park
(49.0825°N, 111.6163°W)
Time: 01:08:52
(UTC-06:00)

Amateur Radio Satellites - All Passes

Search period start: 25 September 2016 00:38
Search period end: 26 September 2016 00:38
Location: Writing-on-Stone Provincial Park, 49.0825°N, 111.6163°W

Satellite Date Start Highest point End Downlink Frequencies (MHz)
Time Altitude Azimuth
POPSAT HIP 1 25 Sep 00:44:49 00:48:46 39° 98° (E) 00:52:43 437.405
VELOX 1 25 Sep 00:45:21 00:49:44 57° 259° (W) 00:54:09 145.980
ANTELSAT 25 Sep 00:47:04 00:50:59 33° 293° (WNW) 00:54:58 437.575/2403.000
DX 1 25 Sep 00:48:46 00:53:09 77° 256° (WSW) 00:57:34 434.975-435.025
BUGSAT 1 25 Sep 00:50:48 00:53:33 17° 91° (E) 00:56:16 437.445
Cosmos 2491 25 Sep 00:52:28 00:58:23 19° 51° (NE) 01:04:14 435.465 / 435.565
CUBEBUG 1 25 Sep 00:59:05 01:03:07 34° 264° (W) 01:07:10 437.445
M-CUBED/EXP-1 PRIME 25 Sep 01:00:22 01:04:01 28° 257° (WSW) 01:07:27 437.505
NANOSAT C BR1 25 Sep 01:03:27 01:07:37 58° 101° (E) 01:11:45 145.865
TIGRISAT 25 Sep 01:08:59 01:12:24 23° 297° (WNW) 01:15:51 435.000
ISS 25 Sep 01:18:27 01:21:41 53° 356° (N) 01:24:55 145.825
QB50P2 25 Sep 01:23:34 01:27:48 78° 286° (WNW) 01:32:01 145.880/145.840
POLYITAN 1 25 Sep 01:25:49 01:30:03 78° 285° (WNW) 01:34:16 437.675
SO-50 25 Sep 01:31:59 01:36:33 62° 235° (SW) 01:40:59 436.795
JAS-2 25 Sep 01:32:27 01:40:22 78° 103° (ESE) 01:48:06 435.910
AISAT 25 Sep 01:39:31 01:42:34 18° 269° (W) 01:45:37 437.250
UNISAT 6 25 Sep 01:50:41 01:51:28 10° 305° (NW) 01:52:15 437.425
TISAT 1 25 Sep 01:52:28 01:56:41 88° 272° (W) 02:00:53 437.305
SPROUT 25 Sep 01:57:01 02:00:13 20° 268° (W) 02:03:26 437.525
YUBILEINY 25 Sep 02:03:58 02:07:37 13° 69° (ENE) 02:11:14 435.215
UKube-1 25 Sep 02:04:25 02:07:31 19° 268° (W) 02:10:37 .
QB50P1 25 Sep 02:07:33 02:11:16 31° 294° (WNW) 02:14:59 145.935-145.965
ITUPSAT 1 25 Sep 02:08:46 02:13:00 33° 65° (ENE) 02:17:16 437.325
DUCHIFAT 1 25 Sep 02:09:09 02:12:56 33° 293° (WNW) 02:16:40 145.980
AO-85 25 Sep 02:09:16 02:11:49 14° 342° (NNW) 02:14:17 145.980
BEESAT 2 25 Sep 02:19:53 02:22:08 15° 112° (ESE) 02:24:24 435.950
POPSAT HIP 1 25 Sep 02:20:58 02:24:23 24° 296° (WNW) 02:27:47 437.405
SWISSCUBE 25 Sep 02:23:19 02:27:54 48° 68° (ENE) 02:32:29 437.505
BUGSAT 1 25 Sep 02:25:19 02:29:12 48° 289° (WNW) 02:33:04 437.445
BEESAT 25 Sep 02:36:35 02:41:14 57° 70° (ENE) 02:45:56 436.000
RS-15 25 Sep 02:37:37 02:48:52 39° 8° (N) 03:00:13 29.354- 29.394
NANOSAT C BR1 25 Sep 02:40:09 02:42:57 18° 300° (WNW) 02:45:45 145.865
Oscar 19 25 Sep 02:47:48 02:52:54 55° 101° (E) 02:57:56 437.125/150
Cosmos 2491 25 Sep 02:48:20 02:57:12 69° 77° (ENE) 03:06:00 435.465 / 435.565
ISS 25 Sep 02:55:07 02:58:24 73° 15° (NNE) 03:01:42 145.825
MOZHAYETS 4 25 Sep 02:56:45 02:59:55 19° 60° (ENE) 03:03:05
QB50P2 25 Sep 03:01:46 03:02:53 11° 305° (NW) 03:03:59 145.880/145.840
POLYITAN 1 25 Sep 03:04:02 03:05:08 11° 305° (NW) 03:06:12 437.675
BEESAT 3 25 Sep 03:06:50 03:10:44 76° 125° (SE) 03:14:42 437.485
AO-7 25 Sep 03:14:15 03:16:57 12° 81° (E) 03:19:38 29.400- 29.500
JAS-2 25 Sep 03:18:07 03:24:42 31° 304° (NW) 03:31:16 435.910
Gurwin Techsat 1B 25 Sep 03:19:01 03:24:13 52° 100° (E) 03:29:24 435.225
ITAMSAT 1 25 Sep 03:34:14 03:38:18 22° 92° (E) 03:42:20 435.822/435.867
KKS-1 25 Sep 03:44:58 03:48:59 34° 66° (ENE) 03:52:59 437.445
ITUPSAT 1 25 Sep 03:46:25 03:50:48 36° 263° (W) 03:55:12 437.325
AO-85 25 Sep 03:52:43 03:54:13 11° 7° (N) 03:55:42 145.980
YUBILEINY 25 Sep 03:53:53 04:02:27 60° 92° (E) 04:11:00 435.215
BEESAT 2 25 Sep 03:55:29 03:59:26 72° 310° (NW) 04:03:26 435.950
SWISSCUBE 25 Sep 04:02:06 04:05:56 24° 267° (W) 04:09:47 437.505
CUBESAT XI-V 25 Sep 04:08:10 04:10:52 15° 57° (ENE) 04:13:35 437.345
BEESAT 25 Sep 04:15:54 04:19:24 20° 269° (W) 04:22:55 436.000
STARS 25 Sep 04:27:26 04:31:35 44° 69° (ENE) 04:35:46 437.465
Oscar 19 25 Sep 04:27:43 04:31:54 25° 300° (WNW) 04:36:03 437.125/150
ISS 25 Sep 04:31:47 04:34:44 30° 214° (SW) 04:37:40 145.825
MOZHAYETS 4 25 Sep 04:32:06 04:36:38 64° 259° (WSW) 04:41:13
CUSAT 1 25 Sep 04:44:30 04:48:36 15° 45° (NE) 04:52:34 437.405
BEESAT 3 25 Sep 04:45:50 04:48:51 20° 327° (NNW) 04:51:53 437.485
Cosmos 2491 25 Sep 04:45:57 04:53:23 32° 279° (W) 05:00:49 435.465 / 435.565
RS-15 25 Sep 04:51:58 05:04:16 64° 39° (NE) 05:16:27 29.354- 29.394
Cosmos 2504 25 Sep 04:54:35 05:01:44 54° 92° (E) 05:08:41 435.465 / 435.565
Gurwin Techsat 1B 25 Sep 04:59:28 05:03:54 28° 299° (WNW) 05:08:21 435.225
AO-7 25 Sep 05:03:28 05:11:38 57° 103° (ESE) 05:19:46 29.400- 29.500
ITAMSAT 1 25 Sep 05:13:01 05:18:09 59° 290° (WNW) 05:23:16 435.822/435.867
PCSat 25 Sep 05:17:18 05:21:39 25° 109° (ESE) 05:26:01 145.827
KKS-1 25 Sep 05:21:36 05:25:33 30° 264° (W) 05:29:30 437.445
AO-85 25 Sep 05:32:43 05:36:16 23° 32° (NNE) 05:39:38 145.980
BEESAT 2 25 Sep 05:35:21 05:37:57 17° 332° (NNW) 05:40:35 435.950
CUBESAT XI-V 25 Sep 05:42:54 05:47:36 86° 255° (WSW) 05:52:22 437.345
DANDE 25 Sep 05:42:54 05:48:09 18° 51° (NE) 05:53:28 436.750
AIST 2 25 Sep 05:50:13 05:54:19 73° 126° (SE) 05:58:28 435.215
YUBILEINY 25 Sep 05:51:43 05:59:44 38° 294° (WNW) 06:07:45 435.215
AIST 1 25 Sep 05:57:41 06:01:39 34° 91° (E) 06:05:38
STARS 25 Sep 06:04:40 06:08:08 23° 267° (W) 06:11:38 437.465
CUSAT 1 25 Sep 06:25:02 06:32:49 49° 68° (ENE) 06:39:45 437.405
HORYU 2 25 Sep 06:28:13 06:32:33 50° 100° (E) 06:36:53 437.375
NOAA 15 25 Sep 06:43:59 06:48:10 23° 92° (E) 06:52:19 137.62
Cubesat XI-IV 25 Sep 06:48:49 06:52:50 21° 91° (E) 06:56:50 437.490
Cosmos 2504 25 Sep 06:48:52 06:55:26 34° 293° (WNW) 07:01:54 435.465 / 435.565
CUTE-I 25 Sep 06:49:57 06:54:03 22° 91° (E) 06:58:08 437.470
ITAMSAT 1 25 Sep 06:54:55 06:56:36 12° 310° (NW) 06:58:17 435.822/435.867
BRITE-PL 25 Sep 06:54:58 06:59:58 56° 99° (E) 07:04:31 437.365/2234.400
AO-7 25 Sep 06:56:36 07:04:14 43° 304° (NW) 07:11:50 29.400- 29.500
PCSat 25 Sep 06:59:16 07:04:39 63° 309° (NW) 07:10:04 145.827
GOMX 1 25 Sep 07:00:54 07:04:49 28° 93° (E) 07:08:32 467.674
NOAA 18 25 Sep 07:04:26 07:08:43 23° 92° (E) 07:13:00 137.9125
RS-15 25 Sep 07:04:58 07:16:46 55° 246° (WSW) 07:28:22 29.354- 29.394
STRAND 1 25 Sep 07:07:01 07:11:49 43° 67° (ENE) 07:16:40 437.568
AO-85 25 Sep 07:12:55 07:17:10 68° 234° (SW) 07:21:06 145.980
LilacSat-2 25 Sep 07:21:06 07:24:41 37° 97° (E) 07:28:15 437.200
CUBESAT XI-V 25 Sep 07:24:06 07:25:43 12° 275° (W) 07:27:20 437.345
DANDE 25 Sep 07:24:33 07:32:40 60° 72° (ENE) 07:40:48 436.750
AIST 2 25 Sep 07:29:58 07:33:15 22° 327° (NNW) 07:36:34 435.215
O/OREOS (USA 219) 25 Sep 07:31:11 07:32:55 12° 97° (E) 07:34:39 437.305
HO-68 25 Sep 07:32:52 07:34:09 10° 81° (E) 07:35:25 435.675
AIST 1 25 Sep 07:35:34 07:39:19 27° 290° (WNW) 07:43:05
DOVE 4 25 Sep 07:38:08 07:41:49 27° 94° (E) 07:45:23 437.250
HORYU 2 25 Sep 08:05:24 08:08:49 22° 299° (WNW) 08:12:14 437.375
BEESAT 3 25 Sep 08:07:10 08:07:31 10° 15° (NNE) 08:07:53 437.485
CUSAT 1 25 Sep 08:07:21 08:14:48 45° 271° (W) 08:21:25 437.405
GONETS M04 25 Sep 08:18:18 08:24:48 24° 77° (ENE) 08:31:19
Cosmos 2499 25 Sep 08:18:30 08:22:12 15° 75° (ENE) 08:25:53 435.465 / 435.565
NOAA 15 25 Sep 08:23:06 08:28:20 59° 291° (WNW) 08:33:31 137.62
Cubesat XI-IV 25 Sep 08:28:04 08:33:22 65° 290° (WNW) 08:38:40 437.490
CUTE-I 25 Sep 08:29:15 08:34:33 63° 289° (WNW) 08:39:49 437.470
PRISM 25 Sep 08:31:00 08:34:34 28° 65° (ENE) 08:38:11 437.425
COMPASS 1 25 Sep 08:32:04 08:32:41 10° 86° (E) 08:33:18 437.405
BRITE-PL 25 Sep 08:34:06 08:38:01 23° 300° (WNW) 08:41:42 437.365/2234.400
GOMX 1 25 Sep 08:38:50 08:43:02 36° 294° (WNW) 08:46:59 467.674
NOAA 18 25 Sep 08:44:24 08:49:48 61° 291° (WNW) 08:55:10 137.9125
CUTE 1.7 + AOD 2 25 Sep 08:45:05 08:48:49 28° 94° (E) 08:52:32 437.475
PCSat 25 Sep 08:45:17 08:49:09 19° 332° (NNW) 08:53:00 145.827
CANX-2 25 Sep 08:45:35 08:49:29 32° 95° (E) 08:53:21 2200.000
STRAND 1 25 Sep 08:46:43 08:51:09 30° 265° (W) 08:55:37 437.568
AO-7 25 Sep 08:50:58 08:54:53 14° 328° (NNW) 08:58:48 29.400- 29.500
SEEDS 25 Sep 08:52:25 08:55:54 24° 93° (E) 08:59:22 437.485
BEESAT 2 25 Sep 08:55:27 08:57:04 12° 20° (NNE) 08:58:42 435.950
LilacSat-2 25 Sep 08:55:50 08:58:48 22° 295° (WNW) 09:01:45 437.200
CUBEBUG 2 25 Sep 09:04:05 09:06:59 18° 91° (E) 09:09:55 437.445
O/OREOS (USA 219) 25 Sep 09:07:00 09:11:34 90° 343° (NNW) 09:16:12 437.305
DANDE 25 Sep 09:07:44 09:15:14 40° 272° (W) 09:22:41 436.750
CINEMA 3 25 Sep 09:12:03 09:16:12 68° 101° (E) 09:20:23 145.822/145.860
DOVE 4 25 Sep 09:15:44 09:19:36 33° 293° (WNW) 09:23:20 437.250
HO-68 25 Sep 09:16:27 09:23:30 56° 102° (ESE) 09:30:30 435.675
RS-15 25 Sep 09:21:23 09:26:08 13° 270° (W) 09:30:52 29.354- 29.394
AAUSAT CUBESAT 2 25 Sep 09:23:46 09:27:25 27° 94° (E) 09:31:01 437.432
FUNcube-1 25 Sep 09:25:29 09:27:17 12° 88° (E) 09:29:07 145.935
UWE-3 25 Sep 09:28:22 09:31:39 21° 92° (E) 09:34:58 435.000/436.395/437.385
UNISAT 6 25 Sep 09:38:35 09:41:46 21° 62° (ENE) 09:44:58 437.425
BEESAT 3 25 Sep 09:43:01 09:46:28 27° 38° (NE) 09:49:56 437.485
ZACube-1 25 Sep 10:04:13 10:08:04 31° 96° (E) 10:11:57 437.345
COMPASS 1 25 Sep 10:04:38 10:08:54 89° 126° (SE) 10:13:08 437.405
NOAA 15 25 Sep 10:05:15 10:07:04 12° 311° (NW) 10:08:52 137.62
PRISM 25 Sep 10:06:02 10:09:49 33° 263° (W) 10:13:37 437.425
Cosmos 2499 25 Sep 10:06:55 10:14:04 78° 97° (E) 10:21:09 435.465 / 435.565
JAS-2 25 Sep 10:07:45 10:11:20 15° 43° (NE) 10:15:04 435.910
Oscar 11 25 Sep 10:08:02 10:12:01 33° 96° (E) 10:15:57 145.826/435.025
Cubesat XI-IV 25 Sep 10:10:12 10:12:28 13° 309° (NW) 10:14:45 437.490
CUTE-I 25 Sep 10:11:26 10:13:35 12° 310° (NW) 10:15:44 437.470
GONETS M04 25 Sep 10:11:36 10:20:28 88° 279° (W) 10:29:25
ANTELSAT 25 Sep 10:13:05 10:17:06 42° 69° (ENE) 10:21:08 437.575/2403.000
CUTE 1.7 + AOD 2 25 Sep 10:20:48 10:24:42 34° 292° (WNW) 10:28:35 437.475
CANX-2 25 Sep 10:21:32 10:25:18 30° 294° (WNW) 10:29:03 2200.000
NOAA 18 25 Sep 10:27:11 10:29:25 13° 311° (NW) 10:31:40 137.9125
SEEDS 25 Sep 10:27:45 10:31:44 39° 291° (WNW) 10:35:42 437.485
NANOSAT C BR1 25 Sep 10:27:52 10:28:22 10° 55° (NE) 10:28:52 145.865
BEESAT 2 25 Sep 10:32:11 10:35:59 38° 42° (NE) 10:39:45 435.950
PCSat 25 Sep 10:33:02 10:34:49 11° 358° (N) 10:36:35 145.827
TIGRISAT 25 Sep 10:34:15 10:38:28 64° 72° (ENE) 10:42:41 435.000
CUBEBUG 2 25 Sep 10:39:48 10:43:55 53° 289° (WNW) 10:48:07 437.445
QB50P2 25 Sep 10:45:56 10:48:39 17° 60° (ENE) 10:51:22 145.880/145.840
POLYITAN 1 25 Sep 10:48:12 10:50:54 17° 60° (ENE) 10:53:36 437.675
O/OREOS (USA 219) 25 Sep 10:48:44 10:51:41 17° 317° (NW) 10:54:39 437.305
CINEMA 3 25 Sep 10:50:31 10:52:54 15° 300° (WNW) 10:55:16 145.822/145.860
HUMSAT D 25 Sep 10:51:06 10:54:21 21° 92° (E) 10:57:37 437.325/437.525
AIST 2 25 Sep 10:52:19 10:53:39 11° 15° (NNE) 10:54:58 435.215
AAUSAT CUBESAT 2 25 Sep 10:59:08 11:02:56 33° 292° (WNW) 11:06:41 437.432
FUNcube-1 25 Sep 10:59:47 11:04:04 79° 285° (WNW) 11:08:26 145.935
UWE-3 25 Sep 11:04:16 11:08:19 44° 290° (WNW) 11:12:27 435.000/436.395/437.385
HO-68 25 Sep 11:04:34 11:10:59 37° 302° (WNW) 11:17:22 435.675
DELFI C3 25 Sep 11:08:59 11:12:59 59° 101° (E) 11:16:57 145.870
UNISAT 6 25 Sep 11:14:04 11:18:13 48° 261° (W) 11:22:22 437.425
BEESAT 3 25 Sep 11:20:29 11:24:19 47° 238° (WSW) 11:28:08 437.485
QB50P1 25 Sep 11:27:53 11:31:46 37° 68° (ENE) 11:35:40 145.935-145.965
DUCHIFAT 1 25 Sep 11:29:08 11:32:56 34° 67° (ENE) 11:36:43 145.980
ZACube-1 25 Sep 11:40:34 11:44:19 31° 293° (WNW) 11:48:09 437.345
POPSAT HIP 1 25 Sep 11:40:55 11:44:58 49° 70° (ENE) 11:49:03 437.405
COMPASS 1 25 Sep 11:42:00 11:43:48 13° 303° (WNW) 11:45:37 437.405
BUGSAT 1 25 Sep 11:44:15 11:47:28 22° 64° (ENE) 11:50:39 437.445
Oscar 11 25 Sep 11:44:16 11:48:05 30° 294° (WNW) 11:51:52 145.826/435.025
JAS-2 25 Sep 11:48:21 11:54:40 54° 66° (ENE) 12:01:47 435.910
ANTELSAT 25 Sep 11:50:39 11:54:01 22° 267° (W) 11:57:23 437.575/2403.000
NANOSAT C BR1 25 Sep 11:59:09 12:03:20 73° 74° (ENE) 12:07:32 145.865
Cosmos 2499 25 Sep 12:02:33 12:08:03 23° 299° (WNW) 12:13:34 435.465 / 435.565
BEESAT 2 25 Sep 12:10:10 12:13:44 30° 242° (WSW) 12:17:16 435.950
GONETS M04 25 Sep 12:11:47 12:18:41 25° 303° (WNW) 12:25:40
TIGRISAT 25 Sep 12:13:11 12:15:37 15° 271° (W) 12:18:02 435.000
PCSat 25 Sep 12:17:00 12:20:34 17° 25° (NNE) 12:24:08 145.827
ESTCUBE 1 25 Sep 12:19:49 12:23:50 30° 95° (E) 12:27:49 437.505/2401.250
QB50P2 25 Sep 12:19:51 12:24:01 62° 258° (WSW) 12:28:13 145.880/145.840
POLYITAN 1 25 Sep 12:22:06 12:26:16 62° 258° (WSW) 12:30:27 437.675
HUMSAT D 25 Sep 12:26:09 12:30:11 44° 290° (WNW) 12:34:14 437.325/437.525
AIST 2 25 Sep 12:29:43 12:33:26 30° 38° (NE) 12:37:09 435.215
AO-7 25 Sep 12:30:57 12:32:52 11° 24° (NNE) 12:34:47 29.400- 29.500
Oscar 19 25 Sep 12:31:14 12:35:02 21° 58° (ENE) 12:38:49 437.125/150
VELOX 1 25 Sep 12:31:56 12:35:12 20° 92° (E) 12:38:28 145.980
DX 1 25 Sep 12:34:20 12:36:34 14° 89° (E) 12:38:47 434.975-435.025
FUNcube-1 25 Sep 12:38:19 12:39:37 11° 304° (WNW) 12:40:56 145.935
CUBEBUG 1 25 Sep 12:43:14 12:47:11 32° 96° (E) 12:51:04 437.445
DELFI C3 25 Sep 12:44:52 12:47:24 16° 299° (WNW) 12:49:57 145.870
HO-68 25 Sep 12:55:38 12:56:44 10° 325° (NW) 12:57:50 435.675
QB50P1 25 Sep 13:04:12 13:07:39 24° 266° (W) 13:11:08 145.935-145.965
DUCHIFAT 1 25 Sep 13:05:07 13:08:40 26° 265° (W) 13:12:14 145.980
Gurwin Techsat 1B 25 Sep 13:06:11 13:10:07 22° 58° (ENE) 13:14:04 435.225
POPSAT HIP 1 25 Sep 13:18:03 13:21:02 19° 269° (W) 13:24:02 437.405
BUGSAT 1 25 Sep 13:18:44 13:22:38 41° 261° (W) 13:26:31 437.445
AISAT 25 Sep 13:23:38 13:28:03 66° 103° (ESE) 13:32:24 437.250
50 SAT 25 Sep 13:29:04 13:32:47 75° 103° (ESE) 13:36:26 437.505
JAS-2 25 Sep 13:34:09 13:40:02 35° 269° (W) 13:46:36 435.910
AUBIESAT-1 25 Sep 13:34:41 13:37:43 31° 103° (ESE) 13:40:41 437.475
TISAT 1 25 Sep 13:34:48 13:35:40 10° 87° (E) 13:36:30 437.305
SPROUT 25 Sep 13:37:20 13:41:30 50° 100° (E) 13:45:38 437.525
NANOSAT C BR1 25 Sep 13:37:39 13:39:34 13° 272° (W) 13:41:31 145.865
UKube-1 25 Sep 13:45:44 13:49:59 52° 101° (E) 13:54:12 .
ESTCUBE 1 25 Sep 13:56:32 14:00:41 35° 293° (WNW) 14:04:49 437.505/2401.250
YUBILEINY 25 Sep 13:58:53 14:06:52 37° 65° (ENE) 14:14:46 435.215
PCSat 25 Sep 13:59:53 14:05:14 53° 48° (NE) 14:10:31 145.827
Cosmos 2491 25 Sep 14:03:01 14:07:42 16° 71° (ENE) 14:12:22 435.465 / 435.565
VELOX 1 25 Sep 14:07:41 14:11:58 50° 290° (WNW) 14:16:12 145.980
AIST 2 25 Sep 14:08:03 14:12:05 47° 238° (WSW) 14:16:06 435.215
Oscar 19 25 Sep 14:08:40 14:13:51 71° 257° (WSW) 14:19:04 437.125/150
DX 1 25 Sep 14:08:56 14:13:17 73° 288° (WNW) 14:17:36 434.975-435.025
M-CUBED/EXP-1 PRIME 25 Sep 14:09:26 14:12:47 75° 291° (WNW) 14:16:01 437.505
AO-7 25 Sep 14:16:05 14:23:02 31° 50° (NE) 14:29:58 29.400- 29.500
CUBEBUG 1 25 Sep 14:19:36 14:23:26 30° 294° (WNW) 14:27:13 437.445
BEESAT 25 Sep 14:35:19 14:36:13 10° 85° (E) 14:37:08 436.000
Cosmos 2504 25 Sep 14:41:19 14:47:13 25° 62° (ENE) 14:53:20 435.465 / 435.565
Gurwin Techsat 1B 25 Sep 14:44:17 14:49:35 70° 257° (WSW) 14:54:55 435.225
PHONESAT 2.4 25 Sep 14:48:52 14:50:47 16° 178° (S) 14:52:43 2401.200-2431.200
ITAMSAT 1 25 Sep 14:55:54 15:00:53 51° 68° (ENE) 15:05:54 435.822/435.867
AISAT 25 Sep 15:01:10 15:04:03 17° 301° (WNW) 15:06:55 437.250
50 SAT 25 Sep 15:04:24 15:05:44 12° 301° (WNW) 15:07:04 437.505
TISAT 1 25 Sep 15:07:44 15:11:55 87° 292° (WNW) 15:16:06 437.305
AUBIESAT-1 25 Sep 15:09:33 15:12:04 20° 302° (WNW) 15:14:32 437.475
SPROUT 25 Sep 15:14:01 15:17:08 20° 298° (WNW) 15:20:14 437.525
UKube-1 25 Sep 15:22:31 15:25:41 20° 299° (WNW) 15:28:50 .
ITUPSAT 1 25 Sep 15:42:11 15:46:47 42° 99° (E) 15:51:21 437.325
PCSat 25 Sep 15:43:41 15:48:24 31° 248° (WSW) 15:53:06 145.827
DX 1 25 Sep 15:47:34 15:48:42 11° 306° (NW) 15:49:48 434.975-435.025
SO-50 25 Sep 15:51:13 15:54:17 17° 111° (ESE) 15:57:18 436.795
Oscar 19 25 Sep 15:53:09 15:54:07 10° 276° (W) 15:55:06 437.125/150
Cosmos 2491 25 Sep 15:54:05 16:02:46 68° 93° (E) 16:11:31 435.465 / 435.565
YUBILEINY 25 Sep 15:55:39 16:04:09 60° 269° (W) 16:12:37 435.215
O/OREOS (USA 219) 25 Sep 15:56:42 15:57:43 11° 35° (NE) 15:58:46 437.305
SWISSCUBE 25 Sep 15:56:43 16:01:31 65° 102° (ESE) 16:06:17 437.505
HORYU 2 25 Sep 15:56:59 15:58:30 12° 54° (NE) 16:00:01 437.375
AIST 1 25 Sep 16:01:10 16:03:37 15° 63° (ENE) 16:06:01
AO-7 25 Sep 16:06:44 16:15:05 81° 252° (WSW) 16:23:27 29.400- 29.500
BEESAT 25 Sep 16:10:00 16:14:50 77° 103° (ESE) 16:19:37 436.000
MOZHAYETS 4 25 Sep 16:23:22 16:27:04 23° 92° (E) 16:30:44
PHONESAT 2.4 25 Sep 16:24:59 16:26:15 12° 194° (SSW) 16:27:31 2401.200-2431.200
Gurwin Techsat 1B 25 Sep 16:29:22 16:30:30 11° 276° (W) 16:31:40 435.225
BRITE-PL 25 Sep 16:32:23 16:36:16 19° 57° (ENE) 16:40:05 437.365/2234.400
NOAA 15 25 Sep 16:32:54 16:34:11 11° 48° (NE) 16:35:28 137.62
Cosmos 2504 25 Sep 16:34:04 16:41:23 77° 264° (W) 16:49:08 435.465 / 435.565
ITAMSAT 1 25 Sep 16:36:21 16:40:37 26° 267° (W) 16:44:56 435.822/435.867
Cubesat XI-IV 25 Sep 16:40:35 16:40:44 10° 48° (NE) 16:40:54 437.490
CUTE-I 25 Sep 16:41:00 16:41:44 10° 48° (NE) 16:42:28 437.470
TISAT 1 25 Sep 16:45:21 16:46:55 12° 304° (WNW) 16:48:28 437.305
NOAA 18 25 Sep 16:57:47 17:00:12 13° 49° (NE) 17:02:37 137.9125
KKS-1 25 Sep 17:07:49 17:11:56 37° 97° (E) 17:16:01 437.445
ITUPSAT 1 25 Sep 17:20:22 17:24:27 28° 297° (WNW) 17:28:33 437.325
SO-50 25 Sep 17:29:20 17:34:11 84° 310° (NW) 17:38:59 436.795
HORYU 2 25 Sep 17:29:53 17:34:17 77° 73° (ENE) 17:38:44 437.375
O/OREOS (USA 219) 25 Sep 17:33:50 17:38:20 48° 58° (ENE) 17:42:47 437.305
SWISSCUBE 25 Sep 17:35:24 17:38:52 20° 301° (WNW) 17:42:19 437.505
CUBESAT XI-V 25 Sep 17:36:12 17:39:30 19° 90° (E) 17:42:46 437.345
AIST 1 25 Sep 17:37:26 17:41:45 69° 263° (W) 17:45:59
STARS 25 Sep 17:48:40 17:52:54 47° 100° (E) 17:57:07 437.465
BEESAT 25 Sep 17:48:58 17:52:03 17° 303° (WNW) 17:55:09 436.000
Cosmos 2491 25 Sep 17:52:33 18:00:20 34° 297° (WNW) 18:08:11 435.465 / 435.565
YUBILEINY 25 Sep 17:55:26 17:58:59 13° 291° (WNW) 18:02:31 435.215
MOZHAYETS 4 25 Sep 18:00:00 18:04:28 48° 290° (WNW) 18:08:56
AO-7 25 Sep 18:03:28 18:09:08 20° 272° (W) 18:14:51 29.400- 29.500
HO-68 25 Sep 18:05:14 18:09:33 17° 45° (NE) 18:13:52 435.675
LilacSat-2 25 Sep 18:06:57 18:10:20 33° 69° (ENE) 18:13:45 437.200
NOAA 15 25 Sep 18:07:41 18:12:50 54° 69° (ENE) 18:18:02 137.62
BRITE-PL 25 Sep 18:08:20 18:14:03 88° 255° (WSW) 18:19:42 437.365/2234.400
GOMX 1 25 Sep 18:11:39 18:16:52 52° 70° (ENE) 18:21:51 467.674
Cubesat XI-IV 25 Sep 18:14:31 18:19:38 50° 68° (ENE) 18:24:46 437.490
CUTE-I 25 Sep 18:15:30 18:20:38 52° 68° (ENE) 18:25:47 437.470
GONETS M04 25 Sep 18:21:25 18:26:32 16° 48° (NE) 18:31:36
Cosmos 2504 25 Sep 18:29:30 18:33:33 16° 284° (WNW) 18:37:43 435.465 / 435.565
NOAA 18 25 Sep 18:34:28 18:39:52 63° 70° (ENE) 18:45:17 137.9125
CINEMA 3 25 Sep 18:42:56 18:45:12 14° 59° (ENE) 18:47:26 145.822/145.860
KKS-1 25 Sep 18:44:37 18:48:24 28° 296° (WNW) 18:52:10 437.445
DOVE 4 25 Sep 18:46:34 18:51:24 49° 70° (ENE) 18:55:59 437.250
HORYU 2 25 Sep 19:09:15 19:11:24 13° 272° (W) 19:13:33 437.375
SO-50 25 Sep 19:11:33 19:15:20 22° 331° (NNW) 19:19:04 436.795
CUBESAT XI-V 25 Sep 19:12:38 19:17:18 61° 289° (WNW) 19:21:54 437.345
O/OREOS (USA 219) 25 Sep 19:13:48 19:17:28 24° 257° (WSW) 19:21:06 437.305
STRAND 1 25 Sep 19:16:34 19:16:59 10° 84° (E) 19:17:24 437.568
RS-15 25 Sep 19:25:16 19:32:49 20° 96° (E) 19:40:32 29.354- 29.394
STARS 25 Sep 19:25:36 19:29:00 22° 298° (WNW) 19:32:23 437.465
COMPASS 1 25 Sep 19:26:05 19:28:07 13° 58° (ENE) 19:30:08 437.405
CUSAT 1 25 Sep 19:30:43 19:36:22 35° 86° (E) 19:43:03 437.405
CUTE 1.7 + AOD 2 25 Sep 19:41:29 19:45:18 33° 67° (ENE) 19:49:07 437.475
LilacSat-2 25 Sep 19:41:43 19:44:43 22° 267° (W) 19:47:45 437.200
CANX-2 25 Sep 19:42:04 19:45:59 38° 68° (ENE) 19:49:57 2200.000
SEEDS 25 Sep 19:47:54 19:51:30 28° 66° (ENE) 19:55:07 437.485
NOAA 15 25 Sep 19:48:36 19:52:56 25° 267° (W) 19:57:19 137.62
HO-68 25 Sep 19:48:56 19:55:58 63° 66° (ENE) 20:03:02 435.675
BRITE-PL 25 Sep 19:49:52 19:53:14 16° 274° (W) 19:56:35 437.365/2234.400
GOMX 1 25 Sep 19:50:39 19:55:09 27° 267° (W) 19:59:31 467.674
Cosmos 2499 25 Sep 19:51:59 19:58:42 36° 68° (ENE) 20:05:49 435.465 / 435.565
Cubesat XI-IV 25 Sep 19:55:31 19:59:58 27° 267° (W) 20:04:28 437.490
CUTE-I 25 Sep 19:56:33 20:00:58 26° 267° (W) 20:05:24 437.470
CUBEBUG 2 25 Sep 20:06:07 20:09:30 24° 65° (ENE) 20:12:52 437.445
NOAA 18 25 Sep 20:16:47 20:20:59 22° 268° (W) 20:25:12 137.9125
GONETS M04 25 Sep 20:16:57 20:25:42 59° 74° (ENE) 20:34:19
CINEMA 3 25 Sep 20:17:18 20:21:49 82° 258° (WSW) 20:26:09 145.822/145.860
AAUSAT CUBESAT 2 25 Sep 20:17:42 20:21:23 31° 67° (ENE) 20:25:06 437.432
FUNcube-1 25 Sep 20:24:53 20:27:27 16° 60° (ENE) 20:30:03 145.935
DOVE 4 25 Sep 20:25:12 20:29:17 25° 267° (W) 20:33:14 437.250
UWE-3 25 Sep 20:29:20 20:32:51 27° 66° (ENE) 20:36:24 435.000/436.395/437.385
DANDE 25 Sep 20:37:35 20:42:26 42° 89° (E) 20:48:43 436.750
STRAND 1 25 Sep 20:51:57 20:57:07 69° 103° (ESE) 21:02:16 437.568
CUBESAT XI-V 25 Sep 20:53:18 20:53:43 10° 308° (NW) 20:54:09 437.345
SO-50 25 Sep 20:55:33 20:57:31 12° 355° (N) 20:59:28 436.795
COMPASS 1 25 Sep 20:58:53 21:03:04 82° 256° (WSW) 21:07:18 437.405
ZACube-1 25 Sep 21:03:56 21:07:47 39° 69° (ENE) 21:11:40 437.345
Oscar 11 25 Sep 21:06:27 21:10:31 42° 69° (ENE) 21:14:37 145.826/435.025
CUSAT 1 25 Sep 21:11:50 21:18:02 54° 290° (WNW) 21:25:35 437.405
CUTE 1.7 + AOD 2 25 Sep 21:17:29 21:21:09 28° 266° (W) 21:24:51 437.475
CANX-2 25 Sep 21:18:28 21:21:58 25° 267° (W) 21:25:29 2200.000
SEEDS 25 Sep 21:23:18 21:27:07 33° 264° (W) 21:30:59 437.485
RS-15 25 Sep 21:31:19 21:42:52 71° 120° (ESE) 21:55:01 29.354- 29.394
AO-85 25 Sep 21:31:46 21:35:00 17° 111° (ESE) 21:38:07 145.980
HO-68 25 Sep 21:37:56 21:44:09 31° 266° (W) 21:50:24 435.675
CUBEBUG 2 25 Sep 21:42:03 21:45:59 38° 263° (W) 21:49:54 437.445
PRISM 25 Sep 21:43:21 21:46:48 25° 94° (E) 21:50:12 437.425
Cosmos 2499 25 Sep 21:44:57 21:52:07 55° 268° (W) 21:59:47 435.465 / 435.565
HUMSAT D 25 Sep 21:46:19 21:49:38 24° 64° (ENE) 21:52:58 437.325/437.525
AAUSAT CUBESAT 2 25 Sep 21:53:13 21:56:52 29° 265° (W) 22:00:33 437.432
DELFI C3 25 Sep 21:58:18 22:02:13 58° 73° (ENE) 22:06:12 145.870
FUNcube-1 25 Sep 21:59:11 22:03:16 61° 258° (WSW) 22:07:24 145.935
UWE-3 25 Sep 22:05:30 22:09:16 32° 264° (W) 22:13:02 435.000/436.395/437.385
GONETS M04 25 Sep 22:14:19 22:22:08 37° 276° (W) 22:29:55
DANDE 25 Sep 22:20:20 22:25:19 37° 296° (WNW) 22:31:43 436.750
STRAND 1 25 Sep 22:32:03 22:35:49 21° 302° (WNW) 22:39:35 437.568
SO-50 25 Sep 22:36:56 22:39:54 16° 20° (NNE) 22:42:50 436.795
ZACube-1 25 Sep 22:40:57 22:44:14 22° 267° (W) 22:47:33 437.345
Oscar 11 25 Sep 22:43:23 22:46:50 23° 267° (W) 22:50:18 145.826/435.025
ISS 25 Sep 22:49:55 22:53:04 46° 151° (SSE) 22:56:14 145.825
AISAT 25 Sep 22:50:49 22:53:11 14° 57° (ENE) 22:55:31 437.250
AUBIESAT-1 25 Sep 22:51:59 22:53:42 13° 54° (NE) 22:55:23 437.475
CUSAT 1 25 Sep 22:58:18 23:02:09 15° 315° (NW) 23:06:16 437.405
UNISAT 6 25 Sep 23:01:31 23:05:09 25° 94° (E) 23:08:48 437.425
AO-85 25 Sep 23:09:47 23:14:57 88° 304° (WNW) 23:19:45 145.980
UKube-1 25 Sep 23:11:32 23:12:50 11° 54° (NE) 23:14:08 .
PRISM 25 Sep 23:18:22 23:22:13 36° 292° (WNW) 23:25:59 437.425
HUMSAT D 25 Sep 23:21:19 23:25:06 36° 263° (W) 23:28:56 437.325/437.525
ESTCUBE 1 25 Sep 23:22:57 23:27:14 44° 69° (ENE) 23:31:35 437.505/2401.250
M-CUBED/EXP-1 PRIME 25 Sep 23:25:09 23:28:44 30° 62° (ENE) 23:32:05 437.505
VELOX 1 25 Sep 23:32:46 23:36:39 30° 65° (ENE) 23:40:33 145.980
DX 1 25 Sep 23:33:14 23:36:34 22° 61° (ENE) 23:39:54 434.975-435.025
DELFI C3 25 Sep 23:35:09 23:37:27 15° 271° (W) 23:39:45 145.870
ANTELSAT 25 Sep 23:36:36 23:40:53 53° 100° (E) 23:45:15 437.575/2403.000
Cosmos 2499 25 Sep 23:42:42 23:43:35 10° 289° (WNW) 23:44:28 435.465 / 435.565
CUBEBUG 1 25 Sep 23:42:43 23:46:56 45° 69° (ENE) 23:51:08 437.445
RS-15 25 Sep 23:44:32 23:56:07 53° 328° (NNW) 00:08:11 29.354- 29.394
TIGRISAT 25 Sep 23:57:47 00:02:10 82° 105° (ESE) 00:06:36 435.000
QB50P2 26 Sep 00:01:36 00:04:16 16° 90° (E) 00:06:54 145.880/145.840
POLYITAN 1 26 Sep 00:03:50 00:06:30 16° 90° (E) 00:09:08 437.675
Cosmos 2491 26 Sep 00:05:05 00:07:45 11° 40° (NE) 00:10:26 435.465 / 435.565
50 SAT 26 Sep 00:09:19 00:12:54 59° 72° (ENE) 00:16:32 437.505
SO-50 26 Sep 00:16:58 00:21:29 48° 43° (NE) 00:25:52 436.795
AUBIESAT-1 26 Sep 00:23:38 00:27:43 85° 247° (WSW) 00:31:31 437.475
AISAT 26 Sep 00:24:33 00:29:01 86° 256° (WSW) 00:33:30 437.250
ISS 26 Sep 00:26:18 00:29:32 60° 350° (N) 00:32:48 145.825
TISAT 1 26 Sep 00:29:31 00:31:58 15° 59° (ENE) 00:34:25 437.305
